Strona główna
METAR-TAF:

METAR-TAF

Lotnisko :

Black_Hills

Spearfish, Dakota Południowa, Stany Zjednoczone

Szerokość geograficzna: 44-29N, Długość geograficzna: 103-47W, wysokość: 1188 m

Aktualna obserwacja pogody

Raport powstał 28 minut temu, godzina 05:55 UTC
Cisza
Temperatura -9°C
Wilgotność 52%
Ciśnienie 1031 hPa
Widzialność: 16.1 km
bezchmurnie

METAR: KSPF 200555Z AUTO 00000KT 10SM CLR M09/M17 A3044 RMK AO2

czas: 23:23 (06:23 UTC)


TAF: brakujący

Obserwacja i prognoza pogody dla ponad 4000 lotnisk (raport METAR i TAF).

Dostępne stacje oznaczono żółtymi i czerwonymi punktami na mapie.

Najedź kursorem aby zobaczyć nazwę stacji.

Kliknij aby zobaczyć obserwacje i prognozy pogody.

Aby zmienić mapę: kliknij na zielony przycisk z czarnym krzyżykiem, aby powiększyć; na zielony przycisk z myślnikiem, aby pomniejszyć; na zielone strzałki, aby przejść do map sąsiednich.


METAR-TAF: